[[{"header":{"parameterUnit":"m.s-1","parameterCategory":2,"la1":30.2991,"la2":30.254,"lo1":-89.0895,"lo2":-89.0444,"dy":0.0017,"dx":0.0017,"nx":28,"ny":28,"refTime":"2024-06-20T21:00:00:Z","depth":"0","parameterNumber":2,"parameterNumberName":"U-component_of_CURRENTS"},"data":[0,0,0,0,0,0,0,0,0,0,0,0,0,0,0,0,0,0,0,0,0,0,0,0,0,0,0,0,0,0,0,0,0,0,0,0,0,0,0,0,0,0,0,0,0,0,0,0,0,0,0,0,0,0,0,0,0,0,-0.4372,-0.4372,0,-0.4314,-0.4313,-0.4312,-0.4274,-0.4274,-0.4275,-0.4275,-0.4126,-0.4121,-0.4117,0,0,0,0,0,0,0,0,0,0,0,0,0,-0.4337,-0.4338,-0.4372,-0.4372,-0.4372,-0.4315,-0.4313,-0.4312,-0.4274,-0.4274,-0.4275,-0.4275,-0.4127,-0.4122,-0.4117,0,0,0,0,0,0,0,0,0,0,0,0,0,-0.4317,-0.4338,-0.4372,-0.4351,-0.4349,-0.4315,-0.4313,-0.4311,-0.4274,-0.4274,-0.4275,-0.4275,-0.4129,-0.4122,-0.4116,-0.4066,0,0,-0.4096,-0.4094,0,0,0,0,0,0,0,0,-0.4318,-0.4318,-0.4354,-0.4352,-0.435,-0.4308,-0.4246,-0.4227,-0.4274,-0.4295,-0.4275,-0.4276,-0.4182,-0.4171,-0.4151,-0.4059,-0.4053,-0.4096,-0.4092,-0.4089,-0.4087,0,0,0,0,0,0,0,-0.432,-0.4319,-0.4343,-0.4354,-0.4351,-0.4306,-0.4304,-0.4242,-0.423,-0.4294,-0.4292,-0.4296,-0.4179,-0.4158,-0.4147,-0.4051,-0.4096,-0.409,-0.4086,-0.4084,-0.3933,-0.3932,0,0,0,0,0,0,-0.4345,-0.4321,-0.4345,-0.4342,-0.4342,-0.4307,-0.4304,-0.4315,-0.4232,-0.4223,-0.4296,-0.4295,-0.4168,-0.4155,-0.4142,-0.4072,-0.4089,-0.4083,-0.408,-0.3933,-0.3933,-0.3932,0,0,0,0,0,0,-0.4345,-0.4348,-0.4347,-0.4334,-0.4332,-0.4309,-0.432,-0.4314,-0.4299,-0.4236,-0.4224,-0.4289,-0.4168,-0.4151,-0.4096,-0.4067,-0.408,-0.4074,-0.3933,-0.3933,-0.3933,-0.3937,0,0,0,0,0,0,-0.4344,-0.4348,-0.4348,-0.4337,-0.4334,-0.4325,-0.432,-0.4313,-0.4303,-0.4301,-0.4225,-0.4212,-0.4167,-0.4107,-0.409,-0.4058,-0.4069,-0.3933,-0.3933,-0.3933,-0.3937,-0.3937,-0.3937,0,0,0,0,0,-0.4343,-0.4368,-0.4349,-0.4351,-0.4341,-0.4325,-0.4318,-0.4298,-0.4303,-0.4287,-0.4249,-0.4215,-0.4093,-0.4101,-0.4082,-0.4047,-0.3933,-0.3933,-0.3933,-0.3937,-0.3937,-0.3937,0,0,0,0,0,0,-0.4349,-0.4366,-0.4345,-0.437,-0.4341,-0.4321,-0.4325,-0.4303,-0.4261,-0.4264,-0.4206,-0.4188,-0.413,-0.4096,-0.4107,-0.4008,-0.4009,-0.4005,-0.4019,-0.4018,-0.4018,-0.4012,-0.4064,0,0,0,0,0,-0.435,-0.4365,-0.4358,-0.4362,-0.4372,-0.4343,-0.4333,-0.4312,-0.4285,-0.4268,-0.4216,-0.4166,-0.4111,-0.4075,-0.4023,-0.3962,-0.3912,-0.3932,-0.3932,-0.3932,-0.3917,-0.3828,-0.3818,-0.3931,-0.3931,-0.3931,0,0,-0.434,-0.4358,-0.4357,-0.4361,-0.4354,-0.4342,-0.4338,-0.4333,-0.4297,-0.4256,-0.4203,-0.4161,-0.4099,-0.4035,-0.4005,-0.4001,-0.3875,-0.3932,-0.3932,-0.3916,-0.3827,-0.3815,-0.3805,-0.3931,-0.3931,-0.3931,0,0,-0.4327,-0.4365,-0.4361,-0.4365,-0.4362,-0.4346,-0.4349,-0.4326,-0.4302,-0.4246,-0.421,-0.4152,-0.4074,-0.4012,-0.3975,-0.3942,-0.3882,-0.3936,-0.3914,-0.3829,-0.3818,-0.3808,-0.3733,-0.3716,-0.3929,-0.3929,-0.3929,0,-0.4306,-0.4307,-0.4348,-0.4358,-0.4353,-0.4355,-0.4329,-0.4314,-0.4257,-0.4216,-0.4234,-0.4103,-0.4056,-0.3956,-0.3952,-0.3935,-0.3888,-0.3918,-0.3826,-0.3815,-0.3805,-0.373,-0.3711,-0.3929,-0.3929,-0.3929,-0.3929,0,-0.4279,-0.4287,-0.4307,-0.4309,-0.4307,-0.4301,-0.4297,-0.4268,-0.4249,-0.4206,-0.4121,-0.4069,-0.3982,-0.3966,-0.3948,-0.3847,-0.3838,-0.384,-0.3823,-0.3793,-0.3717,-0.3697,-0.3929,-0.3929,-0.3929,-0.3929,0,0,-0.4255,-0.4264,-0.4281,-0.4255,-0.4283,-0.4272,-0.4247,-0.4187,-0.4151,-0.4108,-0.403,-0.3958,-0.3936,-0.3894,-0.3861,-0.3796,-0.3689,-0.3792,-0.3787,-0.371,-0.3502,-0.341,-0.338,-0.3677,-0.3673,-0.367,-0.348,0,-0.4209,-0.4169,-0.4205,-0.4172,-0.4155,-0.4177,-0.4145,-0.4103,-0.4077,-0.4015,-0.3962,-0.3893,-0.391,-0.3869,-0.3806,-0.3719,-0.3638,-0.3741,-0.3548,-0.3542,-0.3457,-0.3353,-0.3241,-0.3054,-0.346,-0.3457,-0.3454,0,-0.4201,-0.4164,-0.4088,-0.4072,-0.4075,-0.4055,-0.4009,-0.3981,-0.3927,-0.3912,-0.3855,-0.3826,-0.3726,-0.3759,-0.3584,-0.3653,-0.3571,-0.3514,-0.3505,-0.3399,-0.3412,-0.3149,-0.3002,-0.2995,-0.3424,-0.3426,-0.3428,0,-0.4138,-0.4123,-0.4031,-0.4034,-0.3998,-0.3966,-0.3955,-0.3922,-0.388,-0.3843,-0.3804,-0.3721,-0.3648,-0.356,-0.3461,-0.351,-0.3269,-0.3315,-0.3148,-0.3142,-0.2994,-0.298,-0.2804,-0.3163,-0.3163,-0.3164,-0.3164,0,-0.4079,-0.4037,-0.3994,-0.3948,-0.3864,-0.3902,-0.3824,-0.382,-0.3789,-0.3702,-0.3742,-0.3651,-0.3592,-0.3464,-0.3406,-0.3198,-0.3212,-0.31,-0.3064,-0.2995,-0.2983,-0.2931,-0.2989,-0.3156,-0.3158,-0.3159,-0.3161,0,-0.3973,-0.396,-0.3872,-0.3822,-0.3818,-0.3754,-0.3738,-0.3676,-0.3705,-0.3595,-0.3574,-0.3537,-0.3383,-0.3312,-0.3135,-0.308,-0.287,-0.2854,-0.2784,-0.2742,-0.2595,-0.2659,-0.2438,-0.237,-0.2628,-0.2624,-0.2621,0,-0.3866,-0.3805,-0.3753,-0.3703,-0.3663,-0.361,-0.3558,-0.36,-0.3543,-0.3496,-0.3407,-0.3286,-0.3136,-0.2897,-0.278,-0.2616,-0.2671,-0.2439,-0.2502,-0.2519,-0.2565,-0.2631,-0.2597,-0.2314,-0.2309,-0.2305,-0.2301,0,-0.3648,-0.3655,-0.3572,-0.3481,-0.3426,-0.3348,-0.3299,-0.3254,-0.3265,-0.3213,-0.3086,-0.298,-0.2778,-0.2562,-0.2398,-0.2306,-0.2399,-0.2341,-0.2354,-0.2278,-0.2338,-0.2277,-0.2541,-0.2261,-0.2265,-0.2268,-0.227,-0.2272,-0.3479,-0.3386,-0.3319,-0.3211,-0.316,-0.3044,-0.292,-0.291,-0.2808,-0.2674,-0.2729,-0.2553,-0.2442,-0.219,-0.2093,-0.1948,-0.2053,-0.1923,-0.199,-0.2049,-0.1997,-0.2176,-0.187,-0.1871,-0.1873,-0.1874,-0.1875,0,-0.3213,-0.314,-0.3051,-0.2915,-0.2777,-0.2823,-0.2689,-0.2543,-0.2371,-0.2357,-0.2246,-0.2126,-0.1939,-0.1882,-0.175,-0.1655,-0.1643,-0.1635,-0.1717,-0.169,-0.1809,-0.1812,-0.1483,-0.1483,-0.1483,-0.1483,-0.1483,-0.1483,-0.3068,-0.2886,-0.2844,-0.2553,-0.2469,-0.2217,-0.2092,-0.194,-0.1873,-0.1711,-0.1671,-0.1676,-0.168,-0.1795,-0.1665,-0.1573,-0.1572,-0.1502,-0.1555,-0.169,-0.1725,-0.1757,-0.177,-0.1437,-0.1437,-0.1367,-0.1367,-0.1367]},{"header":{"parameterUnit":"m.s-1","parameterCategory":2,"la1":30.2991,"la2":30.254,"lo1":-89.0895,"lo2":-89.0444,"dy":0.0017,"dx":0.0017,"nx":28,"ny":28,"refTime":"2024-06-20T21:00:00:Z","depth":"0","parameterNumber":3,"parameterNumberName":"V-component_of_CURRENTS"},"data":[0,0,0,0,0,0,0,0,0,0,0,0,0,0,0,0,0,0,0,0,0,0,0,0,0,0,0,0,0,0,0,0,0,0,0,0,0,0,0,0,0,0,0,0,0,0,0,0,0,0,0,0,0,0,0,0,0,0,-0.0905,-0.0901,0,-0.0559,-0.0555,-0.0552,-0.0401,-0.0401,-0.0401,-0.0401,-0.0144,-0.0137,-0.013,0,0,0,0,0,0,0,0,0,0,0,0,0,-0.1348,-0.1341,-0.0906,-0.0901,-0.0896,-0.056,-0.0555,-0.0551,-0.0401,-0.0401,-0.0401,-0.0401,-0.0146,-0.0138,-0.0129,0,0,0,0,0,0,0,0,0,0,0,0,0,-0.1098,-0.1339,-0.0907,-0.0778,-0.0763,-0.0561,-0.0555,-0.055,-0.04,-0.0401,-0.0401,-0.0401,-0.0149,-0.0139,-0.0128,-0.0057,0,0,-0.0096,-0.0092,0,0,0,0,0,0,0,0,-0.1112,-0.1082,-0.0802,-0.0787,-0.0769,-0.052,-0.0616,-0.0388,-0.04,-0.0542,-0.0401,-0.0401,-0.0275,-0.0254,-0.0192,-0.0045,-0.0034,-0.0095,-0.0089,-0.0084,-0.0081,0,0,0,0,0,0,0,-0.113,-0.1096,-0.0772,-0.0797,-0.0777,-0.0707,-0.0673,-0.0572,-0.0416,-0.053,-0.0517,-0.0472,-0.0268,-0.0203,-0.0186,-0.0031,-0.0095,-0.0086,-0.008,-0.0075,0.0221,0.0223,0,0,0,0,0,0,-0.1168,-0.1112,-0.0783,-0.0761,-0.0941,-0.0699,-0.0661,-0.0603,-0.0414,-0.0384,-0.0473,-0.0467,-0.0221,-0.0198,-0.0176,-0.0063,-0.0084,-0.0074,-0.0068,0.022,0.0222,0.0224,0,0,0,0,0,0,-0.1179,-0.1142,-0.0797,-0.0928,-0.0878,-0.0691,-0.0627,-0.0596,-0.0525,-0.0369,-0.0342,-0.0434,-0.022,-0.0191,-0.0088,-0.0053,-0.007,-0.006,0.0218,0.0221,0.0223,0.015,0,0,0,0,0,0,-0.1193,-0.1148,-0.1119,-0.0929,-0.0872,-0.0687,-0.0625,-0.0589,-0.0496,-0.0485,-0.0327,-0.0303,-0.0218,-0.0104,-0.0078,-0.0039,-0.0052,0.0216,0.0219,0.0222,0.0151,0.015,0.0149,0,0,0,0,0,-0.121,-0.1157,-0.112,-0.1079,-0.0838,-0.0686,-0.0651,-0.0522,-0.0495,-0.0463,-0.0361,-0.0308,-0.0066,-0.0095,-0.0064,-0.0021,0.0215,0.0218,0.0222,0.0151,0.015,0.0149,0,0,0,0,0,0,-0.1331,-0.113,-0.1086,-0.0976,-0.0854,-0.066,-0.0601,-0.0529,-0.0417,-0.0409,-0.0288,-0.0256,-0.0152,-0.0079,-0.0113,0.0074,0.0084,0.0094,0.002,0.002,0.0019,0.0003,-0.0043,0,0,0,0,0,-0.1348,-0.1262,-0.1081,-0.1003,-0.094,-0.0782,-0.0704,-0.062,-0.0493,-0.0442,-0.034,-0.0224,-0.0109,-0.0045,0.0058,0.0159,0.0216,0.0208,0.0207,0.0206,0.0215,0.0333,0.0344,0.0235,0.0235,0.0235,0,0,-0.1382,-0.1256,-0.1212,-0.1025,-0.0917,-0.0819,-0.0736,-0.0619,-0.0543,-0.0434,-0.0323,-0.0229,-0.0086,0.0029,0.0083,0.0093,0.026,0.021,0.0208,0.0219,0.0338,0.0349,0.0358,0.0237,0.0237,0.0237,0,0,-0.1392,-0.1289,-0.1219,-0.1118,-0.0952,-0.0849,-0.0826,-0.0648,-0.0574,-0.046,-0.0358,-0.0247,-0.0087,0.0037,0.0119,0.0178,0.0244,0.0205,0.0203,0.0317,0.0326,0.0336,0.0379,0.0393,0.0214,0.0214,0.0214,0,-0.1456,-0.1319,-0.1185,-0.1091,-0.101,-0.0874,-0.0799,-0.0693,-0.0516,-0.0448,-0.0444,-0.0176,-0.0072,0.0111,0.013,0.0179,0.0223,0.0189,0.0313,0.0324,0.0335,0.0378,0.0395,0.0211,0.0211,0.0211,0.0212,0,-0.1395,-0.1303,-0.1255,-0.1096,-0.1002,-0.0915,-0.0759,-0.0681,-0.0599,-0.0484,-0.0323,-0.0179,-0.0018,0.0036,0.0104,0.0251,0.0246,0.0286,0.0305,0.0341,0.0384,0.0402,0.0206,0.0207,0.0208,0.0209,0,0,-0.1527,-0.1266,-0.1259,-0.1187,-0.0998,-0.0913,-0.0803,-0.0641,-0.0568,-0.0421,-0.0304,-0.0106,-0.0037,0.006,0.0166,0.0272,0.0368,0.03,0.0307,0.0322,0.0566,0.0572,0.0592,0.0422,0.0426,0.0429,0.0549,0,-0.1539,-0.1373,-0.1239,-0.113,-0.104,-0.09,-0.0804,-0.0653,-0.0538,-0.0405,-0.0223,-0.0082,-0.002,0.0048,0.0168,0.0328,0.0419,0.0328,0.0549,0.0554,0.0541,0.0617,0.0651,0.0763,0.0567,0.057,0.0572,0,-0.1529,-0.1418,-0.1293,-0.1115,-0.1068,-0.1001,-0.0841,-0.0736,-0.0521,-0.0424,-0.0258,-0.0127,0.0078,0.0102,0.0381,0.0314,0.043,0.0537,0.0545,0.0596,0.0597,0.071,0.0804,0.0979,0.0601,0.0599,0.0597,0,-0.1649,-0.1464,-0.1366,-0.1305,-0.109,-0.1039,-0.0943,-0.0753,-0.0649,-0.0445,-0.0354,-0.0115,0.0014,0.0205,0.0416,0.0404,0.0691,0.0708,0.0821,0.0819,0.0919,0.092,0.1201,0.0899,0.0899,0.0899,0.0898,0,-0.1681,-0.1613,-0.1424,-0.1373,-0.1296,-0.1131,-0.1039,-0.0911,-0.0719,-0.0579,-0.0383,-0.0233,0.0047,0.0247,0.0417,0.0669,0.0696,0.0839,0.0877,0.0888,0.0886,0.1099,0.1149,0.0903,0.0902,0.0901,0.09,0,-0.1772,-0.1644,-0.1548,-0.1378,-0.1335,-0.1287,-0.1102,-0.1013,-0.0845,-0.0666,-0.0597,-0.0298,-0.0035,0.0215,0.0533,0.0673,0.1017,0.098,0.0934,0.0966,0.1224,0.1265,0.1556,0.1675,0.1132,0.1133,0.1134,0,-0.1771,-0.1727,-0.1593,-0.1553,-0.1476,-0.1381,-0.1291,-0.1099,-0.0985,-0.0693,-0.0593,-0.0313,-0.0069,0.0366,0.0663,0.096,0.1097,0.1142,0.1153,0.127,0.1346,0.1369,0.1451,0.1236,0.1238,0.124,0.1241,0,-0.18,-0.1769,-0.1693,-0.1628,-0.1557,-0.1448,-0.1313,-0.1244,-0.0997,-0.0831,-0.0562,-0.0361,0.0077,0.0469,0.083,0.1005,0.1271,0.118,0.1364,0.1512,0.1501,0.1621,0.1064,0.1254,0.1253,0.1252,0.1251,0.1251,-0.1838,-0.1813,-0.1735,-0.167,-0.1596,-0.149,-0.1404,-0.1257,-0.1082,-0.0786,-0.0578,-0.0211,0.0312,0.0857,0.1062,0.1467,0.1419,0.1585,0.1636,0.1657,0.1765,0.1192,0.1386,0.1385,0.1385,0.1384,0.1384,0,-0.1832,-0.179,-0.1756,-0.1662,-0.1591,-0.1536,-0.137,-0.1256,-0.1072,-0.0777,-0.0497,0.0164,0.0678,0.1149,0.1699,0.1921,0.1993,0.2014,0.2095,0.2169,0.1739,0.1738,0.1942,0.1942,0.1942,0.1941,0.1941,0.1941,-0.1821,-0.1768,-0.1743,-0.1651,-0.1594,-0.1458,-0.1363,-0.1209,-0.0977,-0.0532,-0.0117,0.0241,0.088,0.177,0.2301,0.2347,0.2577,0.2517,0.2648,0.2371,0.2336,0.2302,0.232,0.2642,0.2643,0.3087,0.3091,0.3094]}],[{"header":{"parameterUnit":"m.s-1","parameterCategory":2,"la1":30.2991,"la2":30.254,"lo1":-89.0895,"lo2":-89.0444,"dy":0.0017,"dx":0.0017,"nx":28,"ny":28,"refTime":"2024-06-20T21:00:00:Z","depth":"2","parameterNumber":2,"parameterNumberName":"U-component_of_CURRENTS"},"data":[0,0,0,0,0,0,0,0,0,0,0,0,0,0,0,0,0,0,0,0,0,0,0,0,0,0,0,0,0,0,0,0,0,0,0,0,0,0,0,0,0,0,0,0,0,0,0,0,0,0,0,0,0,0,0,0,0,0,-0.2903,-0.2902,0,-0.291,-0.2911,-0.2911,-0.2938,-0.2937,-0.2937,-0.2937,-0.2951,-0.2952,-0.2953,0,0,0,0,0,0,0,0,0,0,0,0,0,-0.2844,-0.2847,-0.2903,-0.2902,-0.2902,-0.291,-0.2911,-0.2912,-0.2938,-0.2937,-0.2937,-0.2937,-0.2951,-0.2952,-0.2953,0,0,0,0,0,0,0,0,0,0,0,0,0,-0.2872,-0.2847,-0.2903,-0.2909,-0.2908,-0.291,-0.2911,-0.2912,-0.2938,-0.2937,-0.2937,-0.2937,-0.2951,-0.2952,-0.2953,-0.2966,0,0,-0.2956,-0.2956,0,0,0,0,0,0,0,0,-0.287,-0.2875,-0.2909,-0.2908,-0.2908,-0.2914,-0.2895,-0.2927,-0.2938,-0.2936,-0.2937,-0.2936,-0.2934,-0.2936,-0.2952,-0.2967,-0.2968,-0.2956,-0.2956,-0.2957,-0.2957,0,0,0,0,0,0,0,-0.2868,-0.2874,-0.2915,-0.2908,-0.2907,-0.2886,-0.2892,-0.2902,-0.2945,-0.2937,-0.2936,-0.2922,-0.2935,-0.2951,-0.2952,-0.2968,-0.2956,-0.2957,-0.2957,-0.2958,-0.3012,-0.3012,0,0,0,0,0,0,-0.2853,-0.2873,-0.2915,-0.2914,-0.2877,-0.2887,-0.2894,-0.292,-0.2944,-0.2945,-0.2922,-0.2923,-0.2949,-0.2951,-0.2952,-0.2984,-0.2957,-0.2958,-0.2958,-0.3011,-0.3012,-0.3013,0,0,0,0,0,0,-0.2853,-0.2859,-0.2914,-0.2884,-0.2888,-0.2889,-0.2918,-0.292,-0.2946,-0.2932,-0.2934,-0.2945,-0.2949,-0.2951,-0.2978,-0.2984,-0.2958,-0.2959,-0.301,-0.3011,-0.3012,-0.3037,0,0,0,0,0,0,-0.2852,-0.286,-0.2877,-0.2884,-0.2889,-0.2929,-0.2918,-0.292,-0.2932,-0.2934,-0.2952,-0.2953,-0.2949,-0.2976,-0.2979,-0.2985,-0.296,-0.3009,-0.301,-0.3012,-0.3036,-0.3039,-0.3043,0,0,0,0,0,-0.2851,-0.2864,-0.288,-0.2883,-0.2914,-0.2928,-0.2932,-0.2934,-0.2934,-0.2956,-0.2966,-0.2953,-0.2988,-0.2979,-0.2981,-0.2987,-0.3008,-0.301,-0.3012,-0.3034,-0.3039,-0.3043,0,0,0,0,0,0,-0.2849,-0.2868,-0.2884,-0.2906,-0.2924,-0.293,-0.2917,-0.2944,-0.2972,-0.2964,-0.2971,-0.2973,-0.3001,-0.2994,-0.2983,-0.3008,-0.2993,-0.2995,-0.3009,-0.3013,-0.3017,-0.3014,-0.2961,0,0,0,0,0,-0.2857,-0.288,-0.2895,-0.2918,-0.2906,-0.2922,-0.2926,-0.2943,-0.2957,-0.297,-0.3002,-0.3009,-0.301,-0.3012,-0.3027,-0.304,-0.3001,-0.3044,-0.3048,-0.3051,-0.3051,-0.2999,-0.2998,-0.3019,-0.3019,-0.3019,0,0,-0.2857,-0.2873,-0.2884,-0.2918,-0.2911,-0.2929,-0.2926,-0.293,-0.2963,-0.2965,-0.3024,-0.3036,-0.3022,-0.3042,-0.3051,-0.3034,-0.3023,-0.3053,-0.3056,-0.3054,-0.3001,-0.2999,-0.2996,-0.302,-0.302,-0.302,0,0,-0.2853,-0.2879,-0.2883,-0.2908,-0.2911,-0.2926,-0.2935,-0.2969,-0.2988,-0.3044,-0.3044,-0.3056,-0.3096,-0.3077,-0.3065,-0.3095,-0.3055,-0.3109,-0.3113,-0.3063,-0.306,-0.3057,-0.2994,-0.2985,-0.3098,-0.3098,-0.3098,0,-0.2836,-0.2881,-0.2886,-0.2902,-0.2911,-0.293,-0.2943,-0.297,-0.3035,-0.3041,-0.3065,-0.3101,-0.31,-0.3075,-0.3097,-0.3099,-0.3069,-0.3094,-0.3065,-0.3062,-0.3058,-0.2994,-0.2984,-0.3099,-0.3099,-0.3099,-0.3099,0,-0.2856,-0.2886,-0.2877,-0.2917,-0.2934,-0.2948,-0.2973,-0.3012,-0.3043,-0.3077,-0.3099,-0.3109,-0.3114,-0.3124,-0.3124,-0.3101,-0.3087,-0.3083,-0.3049,-0.3057,-0.2989,-0.2978,-0.3101,-0.3101,-0.31,-0.31,0,0,-0.2805,-0.2874,-0.2867,-0.2886,-0.2946,-0.2948,-0.2987,-0.301,-0.3013,-0.3088,-0.3091,-0.3114,-0.3122,-0.3111,-0.3107,-0.3083,-0.3036,-0.3086,-0.3083,-0.3014,-0.2923,-0.2829,-0.2807,-0.3035,-0.3034,-0.3033,-0.288,0,-0.2802,-0.2827,-0.2878,-0.2909,-0.2913,-0.2957,-0.2997,-0.3029,-0.305,-0.3074,-0.3064,-0.308,-0.311,-0.3107,-0.3087,-0.3062,-0.3012,-0.3077,-0.2934,-0.2929,-0.2836,-0.2793,-0.262,-0.2463,-0.2869,-0.2867,-0.2866,0,-0.2785,-0.2817,-0.2836,-0.2893,-0.2891,-0.2936,-0.295,-0.2993,-0.3019,-0.3034,-0.3037,-0.3048,-0.303,-0.3053,-0.2979,-0.3027,-0.2976,-0.2951,-0.2944,-0.284,-0.2814,-0.2524,-0.2427,-0.2847,-0.2849,-0.285,-0.2851,0,-0.2711,-0.2765,-0.2775,-0.2805,-0.2889,-0.2903,-0.2945,-0.2981,-0.2974,-0.3003,-0.2993,-0.2991,-0.2972,-0.2935,-0.2899,-0.2936,-0.2807,-0.283,-0.2682,-0.2674,-0.2487,-0.2465,-0.2744,-0.2744,-0.2745,-0.2745,-0.2745,0,-0.2674,-0.2673,-0.2745,-0.277,-0.2777,-0.2859,-0.2856,-0.2898,-0.2922,-0.2893,-0.2963,-0.2916,-0.2949,-0.2887,-0.2861,-0.2726,-0.2753,-0.2662,-0.2622,-0.2491,-0.2473,-0.2786,-0.2793,-0.2739,-0.2741,-0.2742,-0.2743,0,-0.2563,-0.2622,-0.264,-0.2729,-0.2747,-0.2748,-0.2791,-0.2778,-0.2841,-0.2795,-0.2801,-0.2834,-0.2772,-0.2762,-0.2686,-0.264,-0.2546,-0.2483,-0.2329,-0.2273,-0.2456,-0.2466,-0.2294,-0.2289,-0.2285,-0.2282,-0.2279,0,-0.251,-0.2507,-0.2577,-0.2578,-0.2617,-0.2635,-0.2641,-0.2717,-0.2686,-0.2714,-0.2664,-0.2645,-0.2574,-0.2449,-0.2374,-0.2262,-0.2386,-0.2047,-0.2083,-0.2428,-0.2406,-0.2423,-0.2439,-0.1838,-0.1832,-0.1827,-0.1823,0,-0.2403,-0.2418,-0.2433,-0.2438,-0.2447,-0.2429,-0.2442,-0.2414,-0.248,-0.2462,-0.2416,-0.2384,-0.2289,-0.2116,-0.2013,-0.1936,-0.2066,-0.1939,-0.2294,-0.1997,-0.199,-0.1973,-0.2004,-0.1777,-0.1782,-0.1785,-0.1788,-0.179,-0.2301,-0.2253,-0.2265,-0.2241,-0.2251,-0.2203,-0.2142,-0.2159,-0.2107,-0.205,-0.2121,-0.2017,-0.2006,-0.1746,-0.1646,-0.158,-0.1723,-0.1672,-0.169,-0.1713,-0.1706,-0.1694,-0.1423,-0.1425,-0.1427,-0.1429,-0.1431,0,-0.2141,-0.2089,-0.2062,-0.2019,-0.1955,-0.2023,-0.197,-0.1887,-0.1792,-0.1784,-0.1727,-0.1533,-0.1407,-0.1409,-0.123,-0.1198,-0.1217,-0.1164,-0.1204,-0.1248,-0.1287,-0.1263,-0.0859,-0.0858,-0.0856,-0.0855,0,0,-0.2037,-0.1928,-0.1884,-0.1717,-0.1702,-0.1559,-0.1505,-0.1443,-0.1395,-0.1293,-0.1232,-0.1288,-0.1335,-0.1088,-0.104,-0.0924,-0.1078,-0.0873,-0.1326,-0.1414,-0.1451,-0.1565,-0.1573,0,0,0,0,0]},{"header":{"parameterUnit":"m.s-1","parameterCategory":2,"la1":30.2991,"la2":30.254,"lo1":-89.0895,"lo2":-89.0444,"dy":0.0017,"dx":0.0017,"nx":28,"ny":28,"refTime":"2024-06-20T21:00:00:Z","depth":"2","parameterNumber":3,"parameterNumberName":"V-component_of_CURRENTS"},"data":[0,0,0,0,0,0,0,0,0,0,0,0,0,0,0,0,0,0,0,0,0,0,0,0,0,0,0,0,0,0,0,0,0,0,0,0,0,0,0,0,0,0,0,0,0,0,0,0,0,0,0,0,0,0,0,0,0,0,-0.0612,-0.061,0,-0.0407,-0.0405,-0.0403,-0.0287,-0.0287,-0.0286,-0.0285,-0.0073,-0.0068,-0.0063,0,0,0,0,0,0,0,0,0,0,0,0,0,-0.0734,-0.0733,-0.0612,-0.061,-0.0607,-0.0407,-0.0405,-0.0402,-0.0287,-0.0287,-0.0286,-0.0285,-0.0075,-0.0069,-0.0063,0,0,0,0,0,0,0,0,0,0,0,0,0,-0.0623,-0.0733,-0.0613,-0.0523,-0.0513,-0.0408,-0.0405,-0.0402,-0.0288,-0.0287,-0.0286,-0.0285,-0.0077,-0.007,-0.0062,-0.0035,0,0,-0.0039,-0.0036,0,0,0,0,0,0,0,0,-0.063,-0.0619,-0.0539,-0.0529,-0.0517,-0.0369,-0.0369,-0.0277,-0.0288,-0.0376,-0.0285,-0.0284,-0.017,-0.0155,-0.0123,-0.0025,-0.0016,-0.0038,-0.0034,-0.003,-0.0028,0,0,0,0,0,0,0,-0.0638,-0.0626,-0.0534,-0.0536,-0.0523,-0.0434,-0.0419,-0.0351,-0.0284,-0.0368,-0.0359,-0.0332,-0.0165,-0.0131,-0.0117,-0.0013,-0.0039,-0.0032,-0.0027,-0.0024,0.017,0.0171,0,0,0,0,0,0,-0.0667,-0.0635,-0.0541,-0.0528,-0.0569,-0.0433,-0.0417,-0.042,-0.0284,-0.0261,-0.0333,-0.0327,-0.0144,-0.0126,-0.0109,-0.0037,-0.0031,-0.0023,-0.0019,0.017,0.017,0.0171,0,0,0,0,0,0,-0.0672,-0.0662,-0.0549,-0.0572,-0.0551,-0.0433,-0.0437,-0.0417,-0.0376,-0.0256,-0.0234,-0.0313,-0.0142,-0.012,-0.0045,-0.003,-0.002,-0.0013,0.0169,0.017,0.0171,0.0086,0,0,0,0,0,0,-0.0677,-0.0666,-0.0674,-0.0576,-0.0551,-0.0501,-0.0437,-0.0413,-0.036,-0.035,-0.0232,-0.0211,-0.014,-0.0057,-0.0037,-0.0019,-0.0007,0.0168,0.0169,0.017,0.0088,0.0084,0.008,0,0,0,0,0,-0.0682,-0.0688,-0.0677,-0.0664,-0.0569,-0.0501,-0.0481,-0.0394,-0.036,-0.0353,-0.0265,-0.0215,-0.0035,-0.005,-0.0028,-0.0007,0.0167,0.0169,0.017,0.009,0.0085,0.008,0,0,0,0,0,0,-0.0742,-0.0674,-0.066,-0.0647,-0.0591,-0.0481,-0.0448,-0.0403,-0.0327,-0.0311,-0.021,-0.0183,-0.0112,-0.0051,-0.007,0.0053,0.0076,0.0082,0.0007,0.0003,-0.0001,-0.0011,-0.0001,0,0,0,0,0,-0.0766,-0.0762,-0.0683,-0.068,-0.0647,-0.0556,-0.0515,-0.0465,-0.0383,-0.0348,-0.0264,-0.017,-0.0089,-0.0039,0.0036,0.01,0.0157,0.0131,0.0127,0.0123,0.0131,0.023,0.0236,0.0176,0.0176,0.0175,0,0,-0.079,-0.0752,-0.075,-0.0694,-0.0634,-0.0595,-0.0529,-0.0474,-0.0439,-0.0337,-0.0263,-0.0186,-0.0077,-0.0002,0.0037,0.0053,0.0164,0.0125,0.0121,0.0131,0.0232,0.0238,0.0243,0.0176,0.0176,0.0176,0,0,-0.0822,-0.0803,-0.0798,-0.0757,-0.0681,-0.0623,-0.0617,-0.0516,-0.0466,-0.04,-0.0309,-0.0225,-0.011,-0.0018,0.0041,0.0061,0.0133,0.0083,0.0068,0.0162,0.0168,0.0174,0.0219,0.023,0.0089,0.0089,0.0089,0,-0.0847,-0.0842,-0.0786,-0.0763,-0.0726,-0.0645,-0.0624,-0.0563,-0.0456,-0.0407,-0.0391,-0.0195,-0.0112,0.0007,0.0018,0.0054,0.0102,0.0071,0.0156,0.0163,0.0171,0.0217,0.0229,0.0085,0.0086,0.0086,0.0087,0,-0.0877,-0.086,-0.0848,-0.0804,-0.0763,-0.0734,-0.0646,-0.06,-0.0538,-0.0464,-0.0352,-0.0239,-0.0118,-0.008,-0.0022,0.0081,0.0092,0.0129,0.0161,0.0171,0.0219,0.0234,0.008,0.0081,0.0082,0.0083,0,0,-0.095,-0.0883,-0.0876,-0.0858,-0.0783,-0.075,-0.0694,-0.0607,-0.0556,-0.0459,-0.0381,-0.0239,-0.0173,-0.0102,-0.0014,0.0075,0.0154,0.0118,0.0125,0.015,0.0331,0.0336,0.0353,0.0206,0.0209,0.0211,0.033,0,-0.0983,-0.0963,-0.0914,-0.0889,-0.0864,-0.0782,-0.0736,-0.065,-0.0567,-0.0476,-0.0342,-0.024,-0.0181,-0.0124,-0.0027,0.0119,0.0195,0.0116,0.033,0.0336,0.033,0.0373,0.0324,0.0427,0.0345,0.0347,0.0349,0,-0.1016,-0.1,-0.099,-0.0919,-0.0898,-0.0879,-0.0787,-0.0732,-0.0588,-0.0518,-0.0398,-0.0292,-0.0139,-0.0103,0.0137,0.0083,0.0196,0.0297,0.0305,0.0357,0.0371,0.0414,0.0458,0.0375,0.0373,0.0371,0.0369,0,-0.1091,-0.1037,-0.1037,-0.1021,-0.0942,-0.092,-0.087,-0.075,-0.0687,-0.0544,-0.0481,-0.03,-0.0196,-0.0027,0.0175,0.0165,0.0423,0.0438,0.0544,0.0543,0.057,0.0568,0.0601,0.0601,0.0601,0.06,0.06,0,-0.1138,-0.1126,-0.1078,-0.1085,-0.1072,-0.0991,-0.0944,-0.0869,-0.0749,-0.0661,-0.0512,-0.0408,-0.0165,0.0011,0.0171,0.0402,0.0424,0.0554,0.0592,0.0535,0.0528,0.0544,0.0536,0.0605,0.0604,0.0603,0.0602,0,-0.1201,-0.1172,-0.1166,-0.112,-0.111,-0.11,-0.1009,-0.0954,-0.0846,-0.0733,-0.0686,-0.0466,-0.0231,-0.0005,0.0283,0.0405,0.0615,0.0686,0.0575,0.0599,0.0662,0.0648,0.0816,0.0818,0.0819,0.082,0.0821,0,-0.1227,-0.1241,-0.1222,-0.1221,-0.1205,-0.1173,-0.1135,-0.1025,-0.0953,-0.0757,-0.0697,-0.0462,-0.0265,0.0126,0.0383,0.0655,0.0668,0.0753,0.074,0.0673,0.0693,0.0677,0.0662,0.0726,0.0726,0.0726,0.0727,0,-0.1283,-0.1281,-0.1276,-0.129,-0.1273,-0.1232,-0.117,-0.1134,-0.0974,-0.0868,-0.0677,-0.0517,-0.0144,0.0162,0.0493,0.0637,0.0703,0.0763,0.077,0.0671,0.0597,0.0613,0.06,0.0727,0.0727,0.0727,0.0727,0.0727,-0.1312,-0.1321,-0.1321,-0.132,-0.1307,-0.1264,-0.1216,-0.1121,-0.1012,-0.0801,-0.0676,-0.039,-0.0135,0.0364,0.0571,0.0761,0.0764,0.081,0.0807,0.0804,0.0764,0.0697,0.0835,0.0836,0.0836,0.0837,0.0837,0,-0.1318,-0.1322,-0.1338,-0.1319,-0.1301,-0.129,-0.1203,-0.1115,-0.0973,-0.0767,-0.0565,-0.0243,0.008,0.0354,0.0662,0.0827,0.0803,0.0839,0.0778,0.0776,0.0774,0.073,0.0794,0.0795,0.0796,0.0796,0,0,-0.1303,-0.131,-0.1309,-0.129,-0.1289,-0.1223,-0.1164,-0.1038,-0.0868,-0.064,-0.042,-0.0175,0.0135,0.0345,0.0531,0.0687,0.0686,0.0686,0.0698,0.0599,0.0596,0.073,0.0657,0,0,0,0,0]}],[{"header":{"parameterUnit":"m.s-1","parameterCategory":2,"la1":30.2991,"la2":30.254,"lo1":-89.0895,"lo2":-89.0444,"dy":0.0017,"dx":0.0017,"nx":28,"ny":28,"refTime":"2024-06-20T21:00:00:Z","depth":"4","parameterNumber":2,"parameterNumberName":"U-component_of_CURRENTS"},"data":[0,0,0,0,0,0,0,0,0,0,0,0,0,0,0,0,0,0,0,0,0,0,0,0,0,0,0,0,0,0,0,0,0,0,0,0,0,0,0,0,0,0,0,0,0,0,0,0,0,0,0,0,0,0,0,0,0,0,-0.1495,-0.1496,0,-0.1589,-0.159,-0.1591,-0.164,-0.164,-0.164,-0.164,-0.1755,-0.1758,-0.1761,0,0,0,0,0,0,0,0,0,0,0,0,0,-0.1343,-0.1346,-0.1495,-0.1496,-0.1497,-0.1589,-0.159,-0.1592,-0.164,-0.164,-0.164,-0.164,-0.1754,-0.1758,-0.1761,0,0,0,0,0,0,0,0,0,0,0,0,0,-0.1421,-0.1347,-0.1495,-0.1531,-0.1536,-0.1589,-0.159,-0.1592,-0.164,-0.164,-0.164,-0.164,-0.1753,-0.1757,-0.1762,-0.1792,0,0,-0.1776,-0.1778,0,0,0,0,0,0,0,0,-0.1417,-0.1427,-0.1525,-0.1529,-0.1534,-0.1602,-0.1579,-0.1659,-0.164,-0.1601,-0.164,-0.164,-0.1705,-0.1714,-0.1733,-0.1797,-0.1802,-0.1776,-0.1779,-0.1781,-0.1783,0,0,0,0,0,0,0,-0.1411,-0.1423,-0.1533,-0.1526,-0.1531,-0.1539,-0.155,-0.1594,-0.1653,-0.1605,-0.1608,-0.1617,-0.1708,-0.1728,-0.1736,-0.1804,-0.1776,-0.178,-0.1783,-0.1785,-0.1944,-0.1945,0,0,0,0,0,0,-0.1399,-0.1418,-0.153,-0.1536,-0.1473,-0.1541,-0.1554,-0.1581,-0.1653,-0.1663,-0.1617,-0.1619,-0.172,-0.173,-0.174,-0.1837,-0.1781,-0.1786,-0.1788,-0.1943,-0.1944,-0.1946,0,0,0,0,0,0,-0.1396,-0.1409,-0.1526,-0.1477,-0.1492,-0.1544,-0.1574,-0.1583,-0.1621,-0.1662,-0.1673,-0.1648,-0.172,-0.1733,-0.1816,-0.184,-0.1788,-0.1792,-0.1941,-0.1943,-0.1945,-0.1995,0,0,0,0,0,0,-0.1392,-0.1408,-0.1435,-0.1477,-0.1495,-0.1569,-0.1574,-0.1584,-0.1625,-0.1629,-0.1692,-0.1701,-0.1721,-0.1809,-0.182,-0.1845,-0.1795,-0.1939,-0.1942,-0.1945,-0.1991,-0.1998,-0.2004,0,0,0,0,0,-0.1386,-0.1407,-0.1436,-0.145,-0.1527,-0.157,-0.1581,-0.1616,-0.1626,-0.165,-0.1706,-0.17,-0.1832,-0.1815,-0.1828,-0.1854,-0.1938,-0.1941,-0.1944,-0.1988,-0.1997,-0.2004,0,0,0,0,0,0,-0.1348,-0.1415,-0.1448,-0.1489,-0.1536,-0.1578,-0.1599,-0.1628,-0.169,-0.1706,-0.1737,-0.1752,-0.1829,-0.1837,-0.1817,-0.1906,-0.1877,-0.1883,-0.1906,-0.1914,-0.192,-0.1903,-0.1799,0,0,0,0,0,-0.1356,-0.1402,-0.1456,-0.1497,-0.1514,-0.1564,-0.159,-0.1626,-0.1678,-0.1705,-0.176,-0.1808,-0.1849,-0.1879,-0.1925,-0.1984,-0.1958,-0.2002,-0.2009,-0.2014,-0.2009,-0.1989,-0.1992,-0.1957,-0.1957,-0.1957,0,0,-0.1359,-0.1398,-0.1429,-0.1494,-0.153,-0.1575,-0.158,-0.1632,-0.1686,-0.1709,-0.1809,-0.1845,-0.1872,-0.1942,-0.1973,-0.1954,-0.2015,-0.2019,-0.2023,-0.2014,-0.1992,-0.1995,-0.1998,-0.1959,-0.1958,-0.1958,0,0,-0.1374,-0.1415,-0.1458,-0.1497,-0.1562,-0.1595,-0.1613,-0.1687,-0.173,-0.1828,-0.1849,-0.19,-0.1988,-0.2004,-0.2018,-0.2085,-0.2054,-0.21,-0.212,-0.2101,-0.2103,-0.2104,-0.2087,-0.2086,-0.2098,-0.2098,-0.2098,0,-0.1372,-0.1438,-0.1475,-0.1518,-0.1554,-0.1604,-0.1654,-0.1705,-0.181,-0.1842,-0.187,-0.1976,-0.2009,-0.2048,-0.208,-0.2098,-0.2083,-0.2088,-0.2107,-0.2108,-0.2108,-0.209,-0.2088,-0.2101,-0.2101,-0.21,-0.21,0,-0.141,-0.1476,-0.1493,-0.1576,-0.162,-0.1667,-0.1735,-0.1803,-0.1865,-0.1908,-0.1989,-0.2042,-0.2087,-0.2109,-0.2125,-0.2146,-0.2134,-0.212,-0.2082,-0.2114,-0.2094,-0.2091,-0.2105,-0.2104,-0.2103,-0.2102,0,0,-0.1351,-0.15,-0.1503,-0.156,-0.1656,-0.1687,-0.178,-0.1854,-0.1893,-0.1993,-0.2035,-0.2117,-0.2127,-0.2143,-0.2159,-0.2157,-0.2165,-0.215,-0.2148,-0.2123,-0.2126,-0.1983,-0.1967,-0.2155,-0.2154,-0.2154,-0.2113,0,-0.1366,-0.1473,-0.1539,-0.1632,-0.1688,-0.1762,-0.1835,-0.1912,-0.1973,-0.2029,-0.2063,-0.2114,-0.214,-0.2165,-0.2168,-0.2173,-0.216,-0.2177,-0.2106,-0.2104,-0.1964,-0.1959,-0.2153,-0.2111,-0.2111,-0.211,-0.211,0,-0.1352,-0.144,-0.1555,-0.1679,-0.1702,-0.1766,-0.1858,-0.1934,-0.2008,-0.2054,-0.2095,-0.2116,-0.2151,-0.2155,-0.2159,-0.2173,-0.2153,-0.2145,-0.2142,-0.1983,-0.1954,-0.207,-0.2105,-0.2105,-0.2106,-0.2106,-0.2106,0,-0.1282,-0.1418,-0.1521,-0.1565,-0.1726,-0.1781,-0.1849,-0.1941,-0.1988,-0.2058,-0.2078,-0.2118,-0.2139,-0.2132,-0.2132,-0.2149,-0.2107,-0.2118,-0.1963,-0.1953,-0.2075,-0.2073,-0.2085,-0.2085,-0.2086,-0.2086,-0.2086,0,-0.1255,-0.1322,-0.1499,-0.156,-0.1637,-0.1754,-0.1823,-0.1896,-0.1979,-0.1998,-0.2075,-0.2072,-0.2135,-0.212,-0.2116,-0.2021,-0.2087,-0.1951,-0.1922,-0.21,-0.2102,-0.2073,-0.2072,-0.2084,-0.2084,-0.2085,-0.2085,0,-0.1174,-0.1306,-0.1413,-0.1585,-0.1624,-0.1678,-0.1795,-0.1831,-0.1932,-0.1956,-0.1977,-0.2042,-0.2022,-0.2044,-0.2027,-0.1976,-0.1917,-0.186,-0.2044,-0.2029,-0.1787,-0.1789,-0.1687,-0.1681,-0.1677,-0.1673,-0.1669,0,-0.113,-0.1206,-0.1391,-0.1435,-0.1518,-0.1608,-0.1661,-0.1793,-0.1821,-0.1906,-0.1893,-0.191,-0.1929,-0.1786,-0.1838,-0.1788,-0.1769,-0.1738,-0.1768,-0.1758,-0.1741,-0.1752,-0.1761,-0.1662,-0.166,-0.1659,-0.1658,0,-0.1051,-0.115,-0.1246,-0.1339,-0.1409,-0.1473,-0.1553,-0.1571,-0.1702,-0.1792,-0.1746,-0.172,-0.1683,-0.1674,-0.1636,-0.1608,-0.1766,-0.1688,-0.1699,-0.1727,-0.1726,-0.1717,-0.1731,-0.1641,-0.1644,-0.1645,-0.1646,0,-0.0956,-0.0997,-0.1132,-0.119,-0.1269,-0.1307,-0.1387,-0.1417,-0.1471,-0.1589,-0.1558,-0.1583,-0.1646,-0.1575,-0.1541,-0.1499,-0.149,-0.1462,-0.1485,-0.1504,-0.1463,-0.1437,-0.1218,0,0,0,0,0,-0.0842,-0.0903,-0.0952,-0.1032,-0.1102,-0.1152,-0.1285,-0.1376,-0.1509,-0.1429,-0.1495,-0.1448,-0.1397,-0.1419,-0.1336,-0.1467,-0.1504,-0.1367,-0.1486,-0.1549,-0.1569,-0.1539,0,0,0,0,0,0,-0.0771,-0.0863,-0.0907,-0.0867,-0.0882,-0.0951,-0.1047,-0.1158,-0.1139,-0.127,-0.1248,-0.1328,-0.1302,-0.1384,-0.1281,-0.129,-0.1335,-0.1397,-0.1393,-0.1539,-0.1556,-0.1571,-0.1547,0,0,0,0,0]},{"header":{"parameterUnit":"m.s-1","parameterCategory":2,"la1":30.2991,"la2":30.254,"lo1":-89.0895,"lo2":-89.0444,"dy":0.0017,"dx":0.0017,"nx":28,"ny":28,"refTime":"2024-06-20T21:00:00:Z","depth":"4","parameterNumber":3,"parameterNumberName":"V-component_of_CURRENTS"},"data":[0,0,0,0,0,0,0,0,0,0,0,0,0,0,0,0,0,0,0,0,0,0,0,0,0,0,0,0,0,0,0,0,0,0,0,0,0,0,0,0,0,0,0,0,0,0,0,0,0,0,0,0,0,0,0,0,0,0,-0.0417,-0.0416,0,-0.0339,-0.0338,-0.0338,-0.0282,-0.0282,-0.0281,-0.028,-0.0142,-0.0139,-0.0136,0,0,0,0,0,0,0,0,0,0,0,0,0,-0.0387,-0.0389,-0.0418,-0.0416,-0.0415,-0.0339,-0.0338,-0.0337,-0.0282,-0.0282,-0.0281,-0.028,-0.0143,-0.014,-0.0136,0,0,0,0,0,0,0,0,0,0,0,0,0,-0.0367,-0.039,-0.0418,-0.0377,-0.0372,-0.0339,-0.0338,-0.0337,-0.0283,-0.0282,-0.0281,-0.028,-0.0144,-0.014,-0.0135,-0.0127,0,0,-0.0121,-0.0119,0,0,0,0,0,0,0,0,-0.0368,-0.0368,-0.0384,-0.0379,-0.0374,-0.0317,-0.0277,-0.0263,-0.0283,-0.0319,-0.028,-0.0279,-0.0194,-0.0186,-0.0177,-0.0121,-0.0115,-0.0121,-0.0118,-0.0116,-0.0115,0,0,0,0,0,0,0,-0.037,-0.037,-0.0389,-0.0383,-0.0377,-0.0316,-0.0314,-0.0274,-0.0264,-0.0316,-0.0311,-0.0299,-0.0191,-0.0182,-0.0174,-0.0113,-0.0121,-0.0117,-0.0114,-0.0113,-0.001,-0.001,0,0,0,0,0,0,-0.0383,-0.0373,-0.0391,-0.0386,-0.0366,-0.0318,-0.0315,-0.0339,-0.0266,-0.0253,-0.03,-0.0296,-0.019,-0.0179,-0.0168,-0.0135,-0.0116,-0.0112,-0.0109,-0.001,-0.001,-0.001,0,0,0,0,0,0,-0.0383,-0.0387,-0.0395,-0.0373,-0.0369,-0.0321,-0.0346,-0.0337,-0.0324,-0.0254,-0.024,-0.0295,-0.0189,-0.0175,-0.0128,-0.013,-0.011,-0.0106,-0.001,-0.001,-0.001,-0.008,0,0,0,0,0,0,-0.0384,-0.0389,-0.0409,-0.0376,-0.0371,-0.0382,-0.0347,-0.0337,-0.0317,-0.0312,-0.0245,-0.0232,-0.0187,-0.0135,-0.0123,-0.0123,-0.0102,-0.001,-0.001,-0.001,-0.0078,-0.0082,-0.0087,0,0,0,0,0,-0.0383,-0.041,-0.0411,-0.0412,-0.0403,-0.0382,-0.0376,-0.0336,-0.0318,-0.032,-0.0267,-0.0233,-0.0127,-0.0131,-0.0117,-0.0116,-0.001,-0.001,-0.001,-0.0076,-0.0082,-0.0086,0,0,0,0,0,0,-0.0404,-0.0406,-0.0406,-0.0434,-0.0414,-0.0372,-0.0364,-0.0343,-0.0306,-0.0297,-0.0232,-0.0216,-0.0178,-0.0137,-0.0144,-0.0086,-0.0063,-0.0061,-0.0118,-0.0123,-0.0127,-0.0139,-0.0098,0,0,0,0,0,-0.0422,-0.0453,-0.0431,-0.0457,-0.0445,-0.0409,-0.0395,-0.0375,-0.0335,-0.0318,-0.0269,-0.0215,-0.0169,-0.0139,-0.0097,-0.0063,-0.0019,-0.0053,-0.0058,-0.0062,-0.0061,-0.0002,-0.0001,-0.001,-0.001,-0.001,0,0,-0.0435,-0.0444,-0.0458,-0.0464,-0.0443,-0.0437,-0.0399,-0.0386,-0.0379,-0.0308,-0.028,-0.0232,-0.0166,-0.013,-0.0109,-0.0093,-0.0036,-0.0062,-0.0066,-0.0063,-0.0001,-0.0001,0.0,-0.001,-0.001,-0.001,0,0,-0.0466,-0.0486,-0.0509,-0.0501,-0.0482,-0.0461,-0.0461,-0.0423,-0.0403,-0.0376,-0.032,-0.027,-0.0209,-0.0155,-0.0121,-0.0123,-0.0067,-0.0113,-0.0136,-0.0079,-0.0078,-0.0076,-0.0024,-0.0017,-0.0109,-0.0109,-0.0109,0,-0.0482,-0.0515,-0.0508,-0.0519,-0.0511,-0.0476,-0.048,-0.0459,-0.0413,-0.039,-0.0377,-0.0273,-0.0219,-0.0157,-0.0158,-0.0133,-0.0094,-0.0124,-0.0085,-0.0083,-0.008,-0.0026,-0.0018,-0.0112,-0.0112,-0.0111,-0.0111,0,-0.0519,-0.0541,-0.0549,-0.0564,-0.0556,-0.0557,-0.0524,-0.051,-0.0483,-0.0451,-0.0396,-0.0325,-0.0258,-0.0236,-0.0197,-0.0147,-0.0125,-0.0105,-0.0076,-0.0083,-0.0026,-0.0016,-0.0117,-0.0116,-0.0115,-0.0114,0,0,-0.0563,-0.0576,-0.058,-0.0588,-0.058,-0.0577,-0.0567,-0.0538,-0.052,-0.0478,-0.0444,-0.0367,-0.0324,-0.0282,-0.0223,-0.0169,-0.0117,-0.0134,-0.013,-0.0089,0.0007,-0.0004,0.0006,-0.0093,-0.0091,-0.009,0.0036,0,-0.0591,-0.0631,-0.0623,-0.0643,-0.0651,-0.0622,-0.0616,-0.0588,-0.0549,-0.0509,-0.0434,-0.0383,-0.0343,-0.0307,-0.0251,-0.0146,-0.0093,-0.0154,0.0015,0.002,0.0006,0.0017,-0.0086,0.0044,0.0047,0.0048,0.005,0,-0.062,-0.0647,-0.0683,-0.0684,-0.0681,-0.0692,-0.0669,-0.0655,-0.0591,-0.0556,-0.0494,-0.0432,-0.0342,-0.0317,-0.0151,-0.0193,-0.0104,-0.0028,-0.0021,0.0001,0.0028,0.0058,0.0069,0.0067,0.0066,0.0065,0.0063,0,-0.0655,-0.0677,-0.0714,-0.072,-0.0722,-0.0728,-0.0721,-0.0675,-0.0652,-0.0584,-0.055,-0.0448,-0.0381,-0.0269,-0.012,-0.013,0.0058,0.0068,0.0143,0.0143,0.0146,0.0143,0.0177,0.0177,0.0177,0.0176,0.0176,0,-0.0684,-0.0708,-0.074,-0.0763,-0.0792,-0.0775,-0.0777,-0.0749,-0.0701,-0.066,-0.0579,-0.0519,-0.0366,-0.0242,-0.0123,0.0041,0.006,0.0143,0.0177,0.0113,0.0105,0.0153,0.0149,0.0181,0.018,0.0179,0.0178,0,-0.0707,-0.0732,-0.0769,-0.0798,-0.0813,-0.0833,-0.0827,-0.0812,-0.0764,-0.0708,-0.0687,-0.0556,-0.0394,-0.0238,-0.0034,0.0047,0.0198,0.025,0.0171,0.0197,0.0245,0.0235,0.0345,0.0346,0.0346,0.0347,0.0347,0,-0.0713,-0.075,-0.0807,-0.0834,-0.0852,-0.0879,-0.0887,-0.0856,-0.0827,-0.072,-0.0687,-0.0535,-0.0431,-0.0146,-0.0004,0.0216,0.0242,0.0314,0.0274,0.0241,0.0263,0.0253,0.0243,0.0348,0.0348,0.0348,0.0349,0,-0.0728,-0.0764,-0.0793,-0.0858,-0.089,-0.0909,-0.0916,-0.0901,-0.0834,-0.08,-0.0652,-0.0506,-0.0324,-0.0135,0.0037,0.0189,0.026,0.032,0.032,0.0283,0.0246,0.0265,0.0255,0.0351,0.035,0.035,0.035,0,-0.0719,-0.0752,-0.0804,-0.0843,-0.0894,-0.0908,-0.0918,-0.0864,-0.083,-0.0711,-0.0667,-0.0472,-0.0365,-0.0147,0.0008,0.0155,0.0185,0.0223,0.0228,0.0227,0.0142,0.0074,0.016,0,0,0,0,0,-0.0695,-0.0732,-0.078,-0.0821,-0.0874,-0.0899,-0.091,-0.0904,-0.0854,-0.0746,-0.0699,-0.0526,-0.0276,-0.0177,-0.0027,-0.0004,0.0189,0.0171,0.0229,0.0362,0.036,0.0276,0,0,0,0,0,0,-0.0674,-0.0734,-0.0762,-0.0789,-0.0815,-0.0861,-0.0868,-0.0845,-0.0777,-0.0715,-0.0582,-0.0501,-0.0267,-0.0352,-0.0025,0.0016,0.007,0.0287,0.0289,0.0363,0.0361,0.0359,0.0273,0,0,0,0,0]}]]